Meteo Giornale » Osservazioni meteo Russia » Anapa-Vitiazevo
ore: 21:00 - Osservazioni Meteo Anapa-Vitiazevo
Lat. 44° 54' N Lon. 37° 19' E Alt. metri s.l.m.
21 °C
Sereno
Temp. 24 Ore
16 °C
29 °C
Est/Nord-Est
14.4 Km/h
Dew point 16 °C
Umidità 73 %
Visibilità 10 Km
Il sole sorge alle ore 05:52
Il sole tramonta alle ore 19:08
| Data e Ora | Cielo e Fenomeni | T °C | DP °C | Um. % | Pres. hPa | Vis. km | Vento km/h | |
|---|---|---|---|---|---|---|---|---|
| Oggi h: 21:00 | Sereno | 21 | 16 | 73 | 1016 | 10 | E/NE 14.4 | |
| Oggi h: 20:30 | Sereno | 21 | 16 | 73 | 1016 | 10 | NE 10.8 | |
| Oggi h: 20:00 | Sereno | 21 | 15 | 68 | 1015 | 10 | N/NE 14.4 | |
| Oggi h: 19:30 | Sereno | 23 | 15 | 60 | 1015 | 10 | N/NE 18 | |
| Oggi h: 19:00 | Sereno | 24 | 14 | 53 | 1015 | 10 | N/NE 18 | |
| Oggi h: 18:30 | Sereno | 26 | 14 | 47 | 1015 | 10 | N/NE 18 | |
| Oggi h: 18:00 | Sereno | 27 | 15 | 47 | 1015 | 10 | NE 21.6 | |
| Oggi h: 17:30 | Sereno | 28 | 14 | 42 | 1015 | 10 | NE 18 | |
| Oggi h: 17:00 | Sereno | 28 | 14 | 42 | 1015 | 10 | NE 21.6 | |
| Oggi h: 16:30 | Sereno | 29 | 14 | 39 | 1015 | 10 | E/NE 18 | |
| Oggi h: 16:00 | Sereno | 28 | 13 | 39 | 1015 | 10 | NE 18 | |
| Oggi h: 15:30 | Sereno | 29 | 13 | 37 | 1015 | 10 | NE 18 | |
| Oggi h: 15:00 | Sereno | 28 | 13 | 39 | 1015 | 10 | E/NE 21.6 | |
| Oggi h: 14:30 | Sereno | 28 | 13 | 39 | 1015 | 10 | E/NE 21.6 | |
| Oggi h: 14:00 | Sereno | 28 | 13 | 39 | 1015 | 10 | E/NE 18 | |
| Oggi h: 13:30 | Sereno | 27 | 13 | 42 | 1015 | 10 | E/NE 25.2 | |
| Oggi h: 13:00 | Sereno | 27 | 13 | 42 | 1015 | 10 | E/NE 25.2 | |
| Oggi h: 12:30 | Sereno | 27 | 13 | 42 | 1015 | 10 | E/NE 25.2 | |
| Oggi h: 12:00 | Sereno | 26 | 13 | 44 | 1015 | 10 | E/NE 28.8 | |
| Oggi h: 11:30 | Sereno | 25 | 12 | 44 | 1015 | 10 | E/NE 28.8 | |
| Oggi h: 11:00 | Sereno | 25 | 12 | 44 | 1015 | 10 | E/NE 25.2 | |
| Oggi h: 10:30 | Sereno | 25 | 12 | 44 | 1016 | 10 | E/NE 25.2 | |
| Oggi h: 10:00 | Sereno | 25 | 11 | 41 | 1016 | 10 | E 25.2 | |
| Oggi h: 09:30 | Sereno | 23 | 11 | 46 | 1015 | 10 | E/NE 21.6 | |
| Oggi h: 09:00 | Sereno | 22 | 11 | 49 | 1015 | 10 | E/NE 18 | |
| Oggi h: 08:30 | Sereno | 21 | 10 | 49 | 1015 | 10 | E/NE 18 | |
| Oggi h: 08:00 | Sereno | 21 | 10 | 49 | 1015 | 10 | E 18 | |
| Oggi h: 07:30 | Sereno | 19 | 10 | 55 | 1015 | 10 | E 25.2 | |
| Oggi h: 07:00 | Sereno | 18 | 10 | 59 | 1015 | 10 | E 18 | |
| Oggi h: 06:30 | Sereno | 17 | 10 | 63 | 1015 | 10 | E 14.4 | |
| Oggi h: 06:00 | Sereno | 16 | 10 | 67 | 1015 | 10 | N 7.2 | |
| Oggi h: 05:30 | Sereno | 17 | 10 | 63 | 1015 | 10 | E 10.8 | |
| Oggi h: 05:00 | Sereno | 17 | 10 | 63 | 1015 | 10 | E 14.4 | |
| Oggi h: 04:30 | Sereno | 17 | 10 | 63 | 1015 | 10 | E 14.4 | |
| Oggi h: 04:00 | Sereno | 17 | 11 | 67 | 1015 | 10 | E 14.4 | |
| Oggi h: 03:30 | Sereno | 18 | 11 | 63 | 1015 | 10 | E 21.6 | |
| Oggi h: 03:00 | Sereno | 18 | 11 | 63 | 1015 | 10 | E 18 | |
| Oggi h: 02:30 | Sereno | 18 | 11 | 63 | 1015 | 10 | N 7.2 | |
| Oggi h: 02:00 | Sereno | 17 | 12 | 72 | 1015 | 10 | N 7.2 | |
| Oggi h: 01:30 | Sereno | 18 | 12 | 67 | 1015 | 10 | N 7.2 | |
| Oggi h: 01:00 | Sereno | 17 | 12 | 72 | 1015 | 10 | N 7.2 | |
| Oggi h: 00:30 | Sereno | 18 | 12 | 67 | 1015 | 10 | NE 14.4 | |
| Oggi h: 00:00 | Sereno | 18 | 12 | 67 | 1015 | 10 | NE 14.4 | |
| Ieri h: 23:30 | Sereno | 19 | 13 | 68 | 1015 | 10 | E/NE 14.4 | |
| Ieri h: 23:00 | Sereno | 19 | 13 | 68 | 1015 | 10 | NE 14.4 | |
| Ieri h: 22:30 | Sereno | 19 | 13 | 68 | 1015 | 10 | NE 14.4 | |
| Ieri h: 22:00 | Sereno | 19 | 13 | 68 | 1015 | 10 | NE 10.8 | |



